Theta_e
331 332 331 333 332 332 329 328 324 315 315 321 317 318 317 316 319 313 314 319 319 317 314 314 313 312 310 309 309 310 309 309 309 309 310 311 312 313
330 329 331 333 331 331 329 329 326 324 316 320 314 313 315 316 318 310 312 317 319 317 316 314 313 312 310 309 309 309 309 308 307 308 309 310 310 311
328 329 331 330 330 327 327 327 322 319 310 306 310 311 312 312 315 312 311 309 310 316 317 316 313 312 311 309 308 308 308 308 308 307 307 308 309 310
325 326 329 328 324 323 323 318 316 313 310 303 305 306 308 311 311 307 308 310 309 314 317 315 312 311 310 309 309 308 307 306 306 306 306 307 308 308
325 326 324 321 319 319 317 313 310 310 309 306 308 309 308 307 306 306 307 309 311 316 315 313 312 311 310 309 308 307 306 304 304 305 305 305 306 306
318 318 317 319 317 317 313 309 308 305 307 305 303 303 304 306 306 305 304 306 304 309 313 311 311 311 312 311 309 308 306 304 303 303 303 303 303 304
310 311 311 313 314 313 309 305 301 303 301 299 301 304 303 303 303 304 302 302 300 305 303 304 307 308 308 311 310 310 306 303 302 302 302 301 301 302
303 303 305 307 307 308 308 308 306 304 303 303 303 303 303 303 303 302 300 297 295 301 301 301 307 305 304 304 307 304 303 302 302 302 301 301 301 301
301 300 300 302 303 301 303 304 305 306 306 304 302 302 301 301 299 299 299 297 297 302 301 298 304 303 302 302 302 302 301 301 301 301 300 300 300 299
299 299 298 299 300 300 300 300 301 303 304 308 303 301 301 300 300 299 297 298 299 303 302 294 297 298 302 301 302 301 301 300 300 300 300 300 299 298
299 299 299 299 298 299 300 299 299 299 301 301 302 300 300 299 299 299 296 295 293 299 302 298 296 298 298 299 300 302 301 300 299 300 300 300 300 299
297 297 299 298 297 298 299 299 298 297 298 298 298 299 297 298 301 299 301 298 297 297 301 298 298 295 292 297 299 299 300 301 300 300 300 300 299 299
297 297 297 296 295 296 299 302 301 296 299 301 302 300 300 298 302 302 304 301 298 298 303 300 298 296 295 294 297 298 299 300 300 300 301 299 298 298
295 296 295 293 293 295 296 297 295 296 298 302 302 303 302 302 305 305 305 305 304 301 301 301 297 296 294 294 293 297 298 299 299 299 300 300 299 298
296 295 294 293 295 298 300 300 300 302 300 301 301 302 303 303 303 299 299 302 302 302 300 299 298 296 296 294 294 295 295 297 299 299 298 297 297 298
295 294 295 295 296 299 301 302 302 302 302 301 301 301 302 302 301 300 296 296 296 295 298 298 297 296 294 296 296 295 296 294 297 298 298 297 297 297
292 294 296 297 298 298 299 300 300 302 301 301 300 300 300 300 299 300 296 293 293 292 293 295 296 296 297 297 294 295 294 294 296 297 298 295 295 296
294 293 292 294 294 296 296 297 298 300 300 300 299 299 298 298 298 299 297 294 293 292 292 293 294 293 294 297 297 293 294 293 295 297 299 294 293 295
292 292 291 291 291 294 295 295 296 298 299 299 298 298 298 298 297 296 294 293 291 291 292 293 292 291 289 289 294 297 292 293 294 295 298 295 293 293
291 290 290 291 292 292 294 294 297 298 298 298 298 299 298 296 294 293 292 291 290 291 291 292 292 292 290 290 291 295 294 293 293 293 294 297 296 297
290 290 290 291 292 292 294 298 297 296 296 298 298 297 295 294 292 292 292 288 289 290 289 290 293 288 294 296 293 294 296 296 296 293 294 297 295 294
289 289 290 290 291 291 291 293 296 296 296 297 296 295 294 293 292 291 291 290 290 291 291 292 294 295 294 293 292 292 295 297 297 297 296 296 296 291
288 290 290 291 290 290 290 290 292 293 295 296 295 294 294 292 292 291 291 291 291 291 291 291 292 293 292 292 291 292 293 294 295 294 294 296 296 296
Wind_Speed
7 7 7 9 5 6 4 5 6 4 5 4 2 1 3 4 8 6 5 10 10 10 10 11 11 13 9 7 8 7 8 8 8 8 9 10 12 12
7 7 8 7 6 6 4 3 4 6 5 2 2 3 4 3 6 4 3 4 7 13 14 13 14 13 10 9 8 8 8 7 6 8 8 9 9 10
8 7 10 9 8 5 3 3 2 1 4 1 2 3 3 4 3 2 2 3 4 12 15 16 15 13 10 10 9 8 7 7 7 8 8 10 10 10
8 8 10 5 7 4 4 5 5 2 3 4 2 2 3 3 4 2 2 4 4 9 8 12 14 11 11 10 9 8 7 6 6 8 8 9 10 11
11 9 7 5 5 7 6 7 4 2 4 4 4 2 2 3 2 2 3 4 4 12 9 11 11 13 11 12 10 9 6 6 6 7 9 9 9 10
3 6 5 6 11 10 8 8 4 5 6 7 6 3 4 3 4 2 3 2 3 3 3 6 9 14 13 11 10 8 7 7 5 7 7 8 8 8
9 10 12 17 19 11 8 7 8 8 6 6 5 4 3 3 3 3 3 3 3 1 2 2 3 2 1 4 5 8 7 6 6 6 8 8 9 9
13 12 13 22 23 24 25 22 12 9 9 7 4 5 3 3 0 2 3 2 3 2 5 4 4 5 4 4 9 7 4 4 5 6 8 9 9 10
12 11 12 10 14 14 20 20 18 18 12 6 5 3 2 3 0 2 2 2 2 5 2 1 3 3 3 5 7 4 1 4 7 9 10 10 11 11
12 12 12 12 11 13 13 12 10 7 5 4 4 4 3 3 2 1 2 3 2 3 4 2 2 1 3 4 5 3 6 7 9 10 11 11 12 11
12 12 11 13 14 11 12 11 5 1 3 7 7 6 5 5 4 4 4 3 2 1 3 1 2 3 2 3 3 6 8 9 9 11 11 11 11 11
11 11 15 9 10 9 7 4 5 2 1 4 2 2 2 4 3 3 3 3 2 2 3 3 1 2 4 2 3 4 3 8 11 12 13 10 7 3
9 7 5 11 9 9 6 4 4 3 0 1 4 3 2 4 3 3 3 2 2 0 2 2 1 1 2 3 3 3 5 5 5 7 6 8 4 4
7 4 4 8 6 1 3 4 1 2 1 2 4 3 2 1 5 4 5 4 4 4 4 2 1 1 2 2 3 3 6 5 4 4 2 5 2 1
5 6 6 6 5 5 14 16 9 6 6 7 7 7 5 3 3 4 6 5 5 3 5 5 2 3 1 2 3 3 7 3 3 4 2 3 3 2
6 5 5 6 6 6 10 10 7 7 7 6 5 3 2 3 4 3 3 4 3 4 5 6 5 3 1 2 2 5 4 3 4 3 2 2 3 3
6 3 7 9 9 8 9 10 9 8 8 7 6 5 5 4 3 2 2 2 2 4 5 6 7 4 2 1 2 6 5 3 4 3 2 2 4 4
8 9 8 7 7 8 7 7 8 9 6 6 6 5 3 3 3 3 4 5 4 3 3 4 5 3 3 4 10 8 4 3 4 4 3 3 4 5
10 10 9 8 5 5 6 7 6 4 5 5 3 3 4 4 6 5 5 5 4 3 3 3 3 3 2 2 2 16 6 5 4 4 5 5 4 7
10 10 9 9 9 7 5 4 5 6 4 4 4 4 4 5 5 5 4 4 4 3 3 3 2 2 1 2 2 2 12 6 3 2 2 3 3 4
9 9 9 9 9 9 8 5 6 5 5 5 5 5 6 6 5 4 3 3 3 2 3 4 4 5 3 1 2 3 4 15 15 3 1 4 4 3
9 9 8 7 8 8 8 8 6 7 7 6 6 6 5 4 4 4 4 4 4 3 3 3 4 3 3 3 5 4 4 4 11 23 23 11 2 4
8 8 7 8 6 6 7 6 7 6 6 6 5 4 4 4 4 4 4 4 4 4 3 3 3 3 3 3 4 5 8 7 7 13 15 23 25 22
Wind_Direction
254 247 235 251 232 239 198 210 216 227 222 200 152 118 122 130 163 160 170 161 186 192 206 208 220 233 240 257 259 272 280 292 301 297 300 310 308 309
256 235 251 256 241 239 217 209 189 212 186 151 187 157 152 133 168 144 158 213 189 207 220 205 214 223 231 243 247 256 261 273 290 292 295 300 295 295
262 240 249 249 248 240 201 133 130 166 136 244 104 126 111 130 128 130 143 217 241 240 238 218 206 217 220 231 237 246 257 268 279 290 295 290 293 294
262 241 249 242 243 163 115 118 112 30 127 127 88 97 110 126 147 175 256 253 251 256 236 177 202 216 218 219 220 232 242 253 270 271 278 279 288 295
265 250 246 212 134 118 129 104 100 115 95 121 116 106 96 102 71 341 299 283 279 262 204 190 214 230 219 217 210 212 221 236 248 263 270 278 282 285
54 65 62 114 121 119 110 105 130 90 96 104 96 107 106 60 49 44 325 333 307 339 174 196 226 243 232 219 205 200 209 219 236 257 263 269 277 280
80 77 78 89 89 99 109 102 93 87 75 68 64 55 50 65 50 0 335 297 303 3 335 340 310 51 23 232 192 211 181 198 233 263 273 278 278 270
95 86 82 84 82 86 84 77 77 99 91 89 81 84 51 59 71 228 242 353 341 332 16 330 17 59 43 49 75 107 161 243 278 282 283 275 269 263
96 95 90 83 89 86 79 79 68 65 78 92 95 88 164 198 171 324 5 17 283 296 93 319 42 80 98 89 90 85 44 299 295 289 280 272 265 258
79 84 88 89 83 90 89 80 70 61 69 103 148 160 118 88 95 216 267 289 307 7 20 51 352 327 153 172 140 198 241 264 278 286 288 283 271 263
73 73 79 79 62 73 92 93 64 36 232 97 90 97 90 70 50 56 15 34 331 41 354 94 353 314 320 231 239 315 303 312 302 296 293 282 275 261
72 66 65 78 76 81 83 75 112 241 176 76 40 325 332 311 284 190 172 51 341 353 327 12 358 11 334 286 293 301 295 318 315 306 306 302 289 261
85 80 75 80 72 77 89 153 173 160 105 241 181 215 225 263 272 245 234 152 155 316 301 359 346 317 231 290 287 313 331 318 303 300 297 309 304 230
86 68 56 29 18 168 238 255 78 85 50 141 108 155 194 91 42 80 24 41 80 88 350 22 271 268 286 303 307 309 323 301 286 302 329 329 8 86
31 18 1 338 337 34 32 38 49 58 50 44 56 71 71 68 71 67 25 39 71 53 35 8 34 325 249 271 289 305 320 306 301 325 15 16 6 344
23 359 325 335 17 23 41 38 42 56 60 65 64 64 50 48 58 59 51 357 25 357 358 12 354 343 298 261 290 315 310 306 317 344 46 34 21 21
352 17 60 59 52 45 44 38 34 38 41 39 42 28 31 24 36 65 78 12 44 358 355 348 341 311 240 10 332 339 331 318 320 328 84 35 32 18
58 51 49 58 60 55 50 45 37 39 29 40 36 17 3 15 11 15 51 22 11 5 350 327 332 348 4 90 53 358 359 332 322 334 20 55 43 14
50 42 41 40 22 58 65 49 45 31 28 24 4 348 0 29 27 37 27 13 2 336 328 321 324 7 1 341 318 40 9 351 341 9 44 58 73 39
49 45 39 31 29 28 52 57 40 24 4 10 11 13 21 39 26 24 23 357 337 316 325 333 338 0 323 323 323 350 14 17 13 358 49 60 77 96
46 44 39 34 26 20 18 48 40 22 1 9 13 32 31 27 18 354 335 332 330 336 353 351 330 299 267 266 29 27 25 29 42 36 25 78 61 44
41 42 29 33 31 22 14 11 15 24 13 11 26 31 24 12 2 354 335 354 5 360 344 329 346 1 23 34 55 26 20 38 48 55 56 58 155 114
35 33 32 29 18 19 15 10 11 5 1 11 19 5 345 11 3 351 348 3 13 1 356 2 358 9 24 47 52 37 29 32 50 60 57 59 72 77